• In Russia
  • List of Countries
  • For 7 days
  • Water Temperature
  • Satellite Maps
  • Weather Map
  • Weather Widgets
  • user-avatar
    Login

    Hourly Weather Sydney

    Today, 26 September, Tuesday

    Time Temperature Precipitation Wind Pressure Humidity
    00:00 +13°C° 0 mm 4 mps 759 mmHg 51%
    01:00 +13°C° 0 mm 4 mps 759 mmHg 53%
    02:00 +12°C° 0 mm 4 mps 759 mmHg 56%
    03:00 +11°C° 0 mm 4 mps 760 mmHg 59%
    04:00 +11°C° 0 mm 4 mps 759 mmHg 63%
    05:00 +12°C° 0 mm 4 mps 760 mmHg 61%
    06:00 +12°C° 0 mm 4 mps 760 mmHg 60%
    07:00 +13°C° 0 mm 4 mps 761 mmHg 58%
    08:00 +17°C° 0 mm 3 mps 761 mmHg 47%
    09:00 +19°C° 0 mm 3 mps 761 mmHg 37%
    10:00 +24°C° 0 mm 3 mps 761 mmHg 27%
    11:00 +25°C° 0 mm 4 mps 761 mmHg 25%
    12:00 +26°C° 0 mm 4 mps 761 mmHg 24%
    13:00 +26°C° 0 mm 4 mps 761 mmHg 22%
    14:00 +25°C° 0 mm 5 mps 761 mmHg 31%
    15:00 +22°C° 0 mm 5 mps 761 mmHg 39%
    16:00 +20°C° 0 mm 6 mps 761 mmHg 48%
    17:00 +17°C° 0 mm 5 mps 761 mmHg 56%
    18:00 +15°C° 0 mm 4 mps 762 mmHg 65%
    19:00 +13°C° 0 mm 4 mps 762 mmHg 73%
    20:00 +12°C° 0 mm 3 mps 763 mmHg 76%
    21:00 +13°C° 0 mm 2 mps 763 mmHg 79%
    22:00 +12°C° 0 mm 1 mps 764 mmHg 83%
    23:00 +12°C° 0 mm 1 mps 764 mmHg 81%

    Tomorrow, 27 September, Wednesday

    Time Temperature Precipitation Wind Pressure Humidity
    00:00 +13°C° 0 mm 1 mps 764 mmHg 80%
    01:00 +13°C° 0 mm 1 mps 763 mmHg 79%
    02:00 +13°C° 0 mm 1 mps 763 mmHg 81%
    03:00 +12°C° 0 mm 2 mps 763 mmHg 82%
    04:00 +12°C° 0 mm 2 mps 763 mmHg 84%
    05:00 +13°C° 0 mm 2 mps 763 mmHg 81%
    06:00 +14°C° 0 mm 2 mps 763 mmHg 78%
    07:00 +14°C° 0 mm 3 mps 763 mmHg 75%
    08:00 +17°C° 0 mm 4 mps 762 mmHg 67%
    09:00 +19°C° 0 mm 5 mps 762 mmHg 60%
    10:00 +22°C° 0 mm 5 mps 761 mmHg 52%
    11:00 +23°C° 0 mm 6 mps 760 mmHg 48%
    12:00 +26°C° 0 mm 7 mps 759 mmHg 44%
    13:00 +28°C° 0 mm 8 mps 758 mmHg 39%
    14:00 +28°C° 0 mm 8 mps 757 mmHg 41%
    15:00 +27°C° 0 mm 8 mps 756 mmHg 42%
    16:00 +27°C° 0 mm 8 mps 755 mmHg 44%
    17:00 +24°C° 0 mm 8 mps 755 mmHg 54%
    18:00 +22°C° 0 mm 9 mps 755 mmHg 63%
    19:00 +19°C° 0 mm 9 mps 754 mmHg 73%
    20:00 +20°C° 0.1 mm 7 mps 755 mmHg 77%
    21:00 +19°C° 0.1 mm 5 mps 755 mmHg 80%
    22:00 +18°C° 0.1 mm 4 mps 755 mmHg 83%
    23:00 +18°C° 0 mm 4 mps 755 mmHg 83%

    Day after tomorrow, 28 September, Thursday

    Time Temperature Precipitation Wind Pressure Humidity
    00:00 +18°C° 0 mm 3 mps 754 mmHg 83%
    01:00 +18°C° 0 mm 3 mps 754 mmHg 83%
    02:00 +18°C° 0 mm 3 mps 754 mmHg 80%
    03:00 +18°C° 0 mm 3 mps 754 mmHg 77%
    04:00 +18°C° 0 mm 3 mps 754 mmHg 75%
    05:00 +19°C° 0 mm 3 mps 755 mmHg 67%
    06:00 +21°C° 0 mm 3 mps 755 mmHg 60%
    07:00 +22°C° 0 mm 3 mps 755 mmHg 52%
    08:00 +25°C° 0 mm 4 mps 755 mmHg 44%
    09:00 +27°C° 0 mm 4 mps 756 mmHg 36%
    10:00 +29°C° 0 mm 5 mps 756 mmHg 27%
    11:00 +28°C° 0.2 mm 5 mps 756 mmHg 34%
    12:00 +26°C° 0.2 mm 6 mps 756 mmHg 40%
    13:00 +23°C° 0.2 mm 7 mps 756 mmHg 46%
    14:00 +24°C° 0 mm 6 mps 756 mmHg 40%
    15:00 +24°C° 0 mm 6 mps 755 mmHg 34%
    16:00 +26°C° 0 mm 5 mps 755 mmHg 29%
    17:00 +25°C° 0 mm 5 mps 756 mmHg 32%
    18:00 +22°C° 0 mm 4 mps 756 mmHg 36%
    19:00 +21°C° 0 mm 4 mps 757 mmHg 39%
    20:00 +20°C° 0 mm 4 mps 758 mmHg 43%
    21:00 +19°C° 0 mm 3 mps 758 mmHg 46%
    22:00 +18°C° 0 mm 3 mps 759 mmHg 49%
    23:00 +18°C° 0 mm 3 mps 759 mmHg 53%

    29 September, Friday

    Time Temperature Precipitation Wind Pressure Humidity
    00:00 +17°C° 0 mm 3 mps 759 mmHg 57%
    01:00 +16°C° 0 mm 3 mps 759 mmHg 61%
    02:00 +14°C° 0 mm 3 mps 759 mmHg 64%
    03:00 +13°C° 0 mm 3 mps 759 mmHg 67%
    04:00 +13°C° 0 mm 3 mps 759 mmHg 70%
    05:00 +13°C° 0 mm 3 mps 760 mmHg 67%
    06:00 +14°C° 0 mm 4 mps 760 mmHg 64%
    07:00 +15°C° 0 mm 4 mps 761 mmHg 60%
    08:00 +18°C° 0 mm 4 mps 761 mmHg 52%
    09:00 +20°C° 0 mm 4 mps 761 mmHg 44%
    10:00 +22°C° 0 mm 4 mps 761 mmHg 36%
    11:00 +23°C° 0 mm 4 mps 760 mmHg 31%
    12:00 +26°C° 0 mm 3 mps 760 mmHg 26%
    13:00 +27°C° 0 mm 3 mps 759 mmHg 21%
    14:00 +27°C° 0 mm 3 mps 759 mmHg 21%
    15:00 +27°C° 0 mm 3 mps 758 mmHg 21%
    16:00 +27°C° 0 mm 4 mps 758 mmHg 21%
    17:00 +25°C° 0 mm 3 mps 758 mmHg 25%
    18:00 +22°C° 0 mm 3 mps 759 mmHg 28%
    19:00 +20°C° 0 mm 3 mps 760 mmHg 31%
    20:00 +19°C° 0 mm 3 mps 760 mmHg 33%
    21:00 +18°C° 0 mm 3 mps 761 mmHg 35%
    22:00 +17°C° 0 mm 3 mps 761 mmHg 38%
    23:00 +17°C° 0 mm 3 mps 761 mmHg 38%

    30 September, Saturday

    Time Temperature Precipitation Wind Pressure Humidity
    00:00 +17°C° 0 mm 3 mps 760 mmHg 38%
    01:00 +16°C° 0 mm 3 mps 760 mmHg 38%
    02:00 +15°C° 0 mm 4 mps 760 mmHg 40%
    03:00 +14°C° 0 mm 4 mps 760 mmHg 42%
    04:00 +13°C° 0 mm 4 mps 760 mmHg 43%
    05:00 +14°C° 0 mm 4 mps 760 mmHg 42%
    06:00 +15°C° 0 mm 4 mps 761 mmHg 42%
    07:00 +15°C° 0 mm 4 mps 761 mmHg 41%
    08:00 +17°C° 0 mm 5 mps 761 mmHg 36%
    09:00 +20°C° 0 mm 5 mps 761 mmHg 32%
    10:00 +22°C° 0 mm 6 mps 762 mmHg 27%
    11:00 +23°C° 0 mm 6 mps 762 mmHg 25%
    12:00 +23°C° 0 mm 5 mps 762 mmHg 22%
    13:00 +23°C° 0 mm 5 mps 762 mmHg 20%
    14:00 +23°C° 0 mm 5 mps 762 mmHg 22%
    15:00 +22°C° 0 mm 6 mps 762 mmHg 24%
    16:00 +22°C° 0 mm 6 mps 762 mmHg 27%
    17:00 +20°C° 0 mm 6 mps 763 mmHg 36%
    18:00 +16°C° 0 mm 5 mps 764 mmHg 46%
    19:00 +14°C° 0 mm 5 mps 765 mmHg 55%
    20:00 +13°C° 0 mm 4 mps 766 mmHg 60%
    21:00 +12°C° 0 mm 3 mps 766 mmHg 64%
    22:00 +12°C° 0 mm 3 mps 767 mmHg 68%
    23:00 +12°C° 0 mm 2 mps 767 mmHg 70%

    1 October, Sunday

    Time Temperature Precipitation Wind Pressure Humidity
    00:00 +12°C° 0 mm 2 mps 767 mmHg 72%
    01:00 +11°C° 0 mm 1 mps 767 mmHg 74%
    02:00 +10°C° 0 mm 1 mps 767 mmHg 75%
    03:00 +10°C° 0 mm 1 mps 767 mmHg 76%
    04:00 +8°C° 0 mm 2 mps 767 mmHg 77%
    05:00 +9°C° 0 mm 2 mps 767 mmHg 71%
    06:00 +10°C° 0 mm 2 mps 768 mmHg 65%
    07:00 +11°C° 0 mm 3 mps 768 mmHg 59%
    08:00 +15°C° 0 mm 2 mps 768 mmHg 47%
    09:00 +19°C° 0 mm 2 mps 768 mmHg 35%
    10:00 +23°C° 0 mm 2 mps 767 mmHg 24%
    11:00 +25°C° 0 mm 2 mps 767 mmHg 21%
    12:00 +27°C° 0 mm 2 mps 766 mmHg 18%
    13:00 +29°C° 0 mm 2 mps 765 mmHg 15%
    14:00 +28°C° 0 mm 3 mps 765 mmHg 17%
    15:00 +27°C° 0 mm 3 mps 765 mmHg 19%
    16:00 +26°C° 0 mm 4 mps 765 mmHg 22%
    17:00 +22°C° 0 mm 4 mps 766 mmHg 34%
    18:00 +19°C° 0 mm 3 mps 766 mmHg 46%
    19:00 +16°C° 0 mm 3 mps 767 mmHg 59%
    20:00 +15°C° 0 mm 2 mps 767 mmHg 65%
    21:00 +14°C° 0 mm 2 mps 768 mmHg 70%
    22:00 +14°C° 0 mm 1 mps 768 mmHg 76%
    23:00 +13°C° 0 mm 1 mps 768 mmHg 77%
    Show more